Погода в Каунасе

Погода в Каунасе : погода сейчас, прогноз погоды и архив. Всё, что Вы хотите узнать о погоде в Каунасе!

Поиск расширенной информации на нашем сайте:

Другие новости

Новости СМИ2

Главная страница сайта

Новости сайта

03.07.2017

Напоминаем, что на нашем специализированном сайте Метеоцентр.Азия вы можете получить высокодетализированные автоматические прогнозы погоды по пунктам России, СНГ и мира в авиационном формате (включающие направление и скорость ветра, видимость, явления погоды, количество и форму облачности, нижнюю и верхнюю границу облачности).


Погода в Каунасе - сегодня

Время (UTC), дата Ветер
(°,м/с) 
Видим.   Явления Облачность Т
(°С)
Тd
(°С)
f(%) Тe
(°С)
Pmin
(гПа)
dP
(гПа)
Po
(мм)
O2
(г/м3)
Тmin Tmax R s Состояние
почвы
18 21.09.17 060 (СВ) 2-4{06}  8000 м  в посл. час дождь  10/10 150 м 
[Sc]
+11.9 +11.8 99 +16  1014.6  0.4  754  289    +12  19     
21 21.09.17 040 (СВ) 2-4{04}  4300 м  в посл. час дождь  10/10 570 м 
[Sc]
+12.1 +11.9 99 +16  1014.9  0.3  754  289           
00 22.09.17 030 (СВ) 3-6{06}  20000 м  {дождь}  10/0 средняя, верхняя 
[Ac As|Cs]
+12.4 +12.2 99 +16  1013.5  -1.4  753  288      0.4     
03 22.09.17 тихо () -1{06}  11000 м    3/3 1000 м 
[Sc]
+12.1 +11.8 98 +16  1015.1  1.6  754  289           
06 22.09.17 080 (В) 1-3{04}  17000 м  {туман}  8/3 120 м верхняя 
[St|Ci sp]
+13 +13 100 +19  1016.7  1.6  756  288  +11.1    0.4    мокрая 
09 22.09.17 110 (В) 4-7{07}  12000 м    9/6 480 м средняя, верхняя 
[Cu Sc|Ac trans|Ci sp]
+16.3 +14 86 +23  1017.8  1.2  756  285           
12 22.09.17 100 (В) 4-7{08}  20000 м    9/4 500 м средняя, верхняя 
[Cu Sc|Ac trans|Ci sp]
+17.8 +14.3 80 +25  1018.5  0.7  757  283           
15 22.09.17 060 (СВ) 2-3{07}  19000 м    10/3 600 м верхняя 
[Sc|Ci fib]
+17.5 +14.2 81 +25  1019  0.5  757  284           
18 22.09.17 020 (С) 2-3{04}  17000 м    ясно 
+14.6 +13.7 94 +21  1020.2  1.1  758  287    +18.2       
21 22.09.17 040 (СВ) 2-3{05}  15000 м    ясно 
+13.7 +13.1 96 +19  1020.4  0.2  758  288           
00 23.09.17 050 (СВ) 2-3{05}  18000 м    ясно 
+12.7 +12.1 96 +17  1021.1  0.6  759  290           
03 23.09.17 060 (СВ) 2-4{05}  18000 м    ясно 
+11.5 +11 97 +14  1021.1  759  291           
06 23.09.17 080 (В) 3-5{05}  19000 м    3/0 верхняя 
[Ci fib]
+12.2 +10.6 90 +14  1022  0.9  759  291  +10.9        влажная 
09 23.09.17 090 (В) 5-7{07}  19000 м    3/0 верхняя 
[Ci fib]
+15.1 +11.4 79 +18  1022.7  0.8  760  288           
12 23.09.17 090 (В) 5-8{08}  19000 м    9/0 средняя, верхняя 
[Ac trans|Ci fib]
+18 +11.7 67 +21  1022.9  0.3  760  285           
15 23.09.17 100 (В) 3-5{09}  20000 м    10/0 средняя, верхняя 
[Ac trans|Ci fib]
+17.5 +11.9 70 +21  1023.1  0.2  760  286           
18 23.09.17 100 (В) 3-6{08}  20000 м    10/0 верхняя 
[Ci fib]
+14.8 +11.6 81 +18  1024.9  1.7  762  289    +18.2       
21 23.09.17 100 (В) 3-5{06}  20000 м    10/0 верхняя 
[Ci fib]
+13.5 +11.2 86 +16  1025.9  0.9  762  291           
00 24.09.17 070 (В) 1-2{05}  20000 м    9/0 верхняя 
[Ci fib]
+12 +10.9 93 +15  1026.8  0.9  763  293           
03 24.09.17 060 (СВ) 1-3{04}  20000 м    ясно 
+10.7 +9.9 95 +13  1027.2  0.3  763  294           
06 24.09.17 080 (В) 2-3{05}  19000 м    4/0 верхняя 
[Ci fib]
+11.8 +10 89 +13  1027.6  0.5  764  293  +10.3        влажная 
09 24.09.17 090 (В) 5-9{09}  20000 м    ясно 
+16 +9.3 64 +16  1028.1  0.6  764  289           
12 24.09.17 100 (В) 5-9{09}  20000 м    ясно 
+19.1 +9.5 54 +19  1028  764  286           
15 24.09.17 100 (В) 3-6{09}  20000 м    ясно 
+18.9 +9.9 56 +21  1028.2  0.2  764  286           
18 24.09.17 090 (В) 3-6{06}  20000 м    1/0 средняя 
[Ac lent]
+15.3 +9.5 68 +16  1029.4  1.1  765  290    +19.6       
Время (UTC), дата Ветер
(°,м/с) 
Видим.   Явления Облачность Т
(°С)
Тd
(°С)
f(%) Тe
(°С)
Pmin
(гПа)
dP
(гПа)
Po
(мм)
O2
(г/м3)
Тmin Tmax R s Состояние
почвы

Для получения пояснительной информации подведите курсор к названию столбца.

ПОГОДА в Каунасе - архив

Всё, что Вы хотите узнать о погоде в Каунасе - удобно и подробно!

Выберите нужную дату (начиная с 1 января 2015* года) и нажмите кнопку "Найти".
Будут отображены архивные сводки погоды по пункту Каунас, начиная с указанной даты.


Отображать данные в формате CSV (для использования в таблицах Excel)


Внимание! Наш архив погоды предназначен исключительно для личного некоммерческого использования в познавательных целях. Если Вам необходимы официальные справки о состоянии погоды (для производственных, юридических, коммерческих и т.п. целей), обращайтесь в органы Росгидромета.

*Примечание: данная дата относится к архиву по метеостанциям СССР (Россия, СНГ, Балтия).
Архив по метеостанциям Зарубежной Европы и Азии (кроме Китая) хранится 10 дней, по другим регионам земного шара (Китай, Африка, Америка, Австралия, Океания) - 1 день.

Каунас - район местоположения метеостанции


Название, широта, долгота, высота метеостанции:
Каунас 54.9°ш. 23.8°д. 77 м над ур. моря [Литва]

Дополнительная информация

В oтличие oт бoльшинства пoгoдных сайтoв мы публикуем пoдрoбную метеoинфoрмацию в детальнoм прoфессиoнальнoм фoрмате.

Характеристики температуры и влажнoсти вoздуха измеряются на высoте 2 м в тени вдали oт зданий и деревьев.
Скoрoсть ветра измеряется на высoте 10 м (на урoвне рoста челoвека скoрoсть ветра ниже в 1.5-2 раза). Если метеoстанция нахoдится в гoрoде или в лесу, тo скoрoсть ветра занижена на 2-4 м/с пo сравнению с oткрытым местoм. Скoрoсть ветра над акватoриями крупных рек и oзёр, а также на вершинах хoлмoв на 2-5 м/с выше, чем в oбычных услoвиях.
Атмoсфернoе давление в разных тoчках местнoсти мoжет значительнo oтличаться oт давления на метеoстанции, в зависимoсти oт услoвий рельефа (при пoдъёме на 10 м давление пoнижается примернo на 1 мм рт.ст.).